Dewpoint
35 33 29 29 32 33 36 35 35 35 40 40 42 49 52 55 54 54 53 56 56 57 59 59 61 61 61 63 64 63 66 68 68 69 68 69 67 67 64 64 70 71 70 71
33 33 33 31 32 32 32 32 33 32 33 39 47 49 52 52 52 52 54 57 57 55 55 57 57 58 60 63 62 65 65 69 68 70 68 69 68 67 65 65 66 71 71 72
31 33 34 31 31 31 31 31 32 32 30 38 46 47 49 50 54 55 57 58 57 54 54 56 56 58 59 63 63 63 67 70 69 70 69 68 69 67 66 65 63 70 70 71
31 32 32 31 29 30 29 31 32 33 32 35 36 39 49 49 51 51 55 57 54 52 53 56 56 57 59 62 65 64 68 70 70 70 69 67 65 65 67 64 65 66 71 72
25 31 30 30 28 26 25 28 27 30 32 32 35 34 46 48 45 50 53 56 53 54 52 55 56 57 58 61 64 66 66 70 70 69 68 68 67 66 64 65 64 67 70 70
27 31 32 30 28 27 27 26 25 25 28 28 27 34 34 43 46 47 53 55 56 54 52 53 56 57 57 61 64 67 66 68 69 69 69 67 67 65 65 63 64 66 72 71
27 28 30 32 29 28 26 25 21 20 22 26 27 28 33 34 38 47 51 54 55 52 53 53 55 56 57 60 63 67 67 67 70 69 67 70 68 67 64 63 64 67 71 71
22 25 30 32 30 27 25 24 19 16 16 21 21 19 23 27 30 35 47 52 52 52 53 53 53 55 56 58 62 65 68 67 69 71 69 67 70 70 66 68 65 65 68 70
18 23 29 31 31 26 20 19 19 14 17 17 18 19 22 23 25 28 35 47 49 51 53 53 53 54 55 57 61 64 67 68 69 69 70 70 68 71 69 65 69 69 66 69
29 17 22 26 31 29 18 18 16 13 11 13 15 19 20 21 22 25 23 36 43 49 52 53 53 54 55 56 59 62 67 68 69 70 70 71 71 69 71 70 67 66 68 70
34 26 20 20 26 27 22 17 15 14 14 12 14 15 20 24 23 23 26 31 40 45 52 53 54 54 55 56 58 61 64 68 70 71 70 71 72 72 70 71 70 68 68 67
34 31 24 19 20 24 24 17 17 13 12 14 13 12 25 19 25 24 28 27 37 42 52 53 54 54 55 55 56 59 63 67 69 70 71 71 72 73 72 70 70 70 68 70
33 31 26 22 21 20 22 17 17 18 18 15 10 11 17 23 26 24 28 30 28 42 50 53 54 54 54 55 56 59 60 65 68 70 70 72 72 72 73 73 70 70 71 70
40 33 33 26 23 20 19 20 15 15 16 15 16 14 23 23 25 28 27 32 37 37 46 51 54 54 54 55 56 57 59 61 67 69 71 71 73 73 73 74 73 71 71 71
32 27 29 28 30 28 26 21 17 15 14 18 18 20 22 23 32 35 37 38 37 37 48 50 52 54 55 55 56 57 58 60 61 69 70 71 72 73 73 73 74 73 71 73
31 26 29 30 31 29 28 27 18 17 16 16 19 15 29 28 33 34 35 36 38 43 45 47 50 53 55 56 57 58 58 60 61 62 69 70 72 73 73 73 73 74 74 71
29 24 26 28 30 29 29 28 28 17 19 17 16 19 33 28 33 34 33 34 38 41 40 40 42 48 55 57 59 60 60 60 62 63 64 69 71 72 73 73 73 73 73 74
29 23 26 28 29 27 30 33 32 26 20 25 20 27 29 32 41 40 36 32 35 37 37 42 43 46 47 59 61 61 62 64 63 63 66 66 70 72 72 72 73 73 73 73
25 22 24 26 29 30 31 30 29 30 43 44 45 42 34 45 48 51 52 53 54 55 56 55 53 54 53 52 55 65 62 64 66 66 67 68 70 71 72 72 73 73 73 73
23 21 23 24 27 27 33 32 34 34 41 44 43 47 43 44 46 48 51 53 55 57 59 60 60 57 54 56 56 61 65 65 64 65 69 71 70 71 71 72 73 74 74 73
20 21 21 22 24 35 34 34 42 38 39 41 39 43 47 46 48 49 51 53 57 57 59 62 63 63 62 59 56 55 55 63 68 69 68 70 72 72 72 72 73 73 74 74
30 29 24 21 24 28 36 33 34 38 38 37 39 38 45 45 44 45 46 49 54 55 56 58 62 65 67 64 59 56 59 59 59 67 69 70 71 72 73 73 74 74 74 74
28 33 33 31 30 35 32 31 34 30 30 35 35 35 37 42 41 42 43 45 47 53 56 57 60 66 67 68 65 61 60 63 63 68 70 70 71 71 70 73 74 74 74 74
25 30 30 31 30 31 32 30 35 36 36 34 31 32 35 37 40 41 42 43 44 46 54 57 56 62 66 68 69 70 64 67 70 66 71 72 71 73 71 73 74 74 74 74
29 31 32 30 31 34 33 34 35 36 37 38 39 34 32 32 38 40 41 42 43 45 53 57 56 57 64 67 72 73 71 69 65 66 72 73 73 72 73 66 66 72 71 71
30 32 33 31 35 36 36 37 37 37 38 38 39 38 37 36 38 40 40 43 44 42 43 57 58 62 65 66 70 72 73 74 74 69 67 74 73 73 71 65 62 54 57 58
Wind_Speed
25 23 36 30 27 17 22 25 21 22 25 22 17 30 36 27 27 31 26 19 19 33 34 34 36 35 32 24 27 28 24 25 21 18 19 17 17 12 9 8 9 19 16 14
24 39 23 23 24 26 28 29 26 24 27 20 28 34 31 36 27 33 33 24 26 31 28 29 30 33 33 28 30 25 24 28 24 20 19 11 16 12 12 11 9 17 17 15
33 14 26 28 27 29 29 29 29 23 21 15 24 15 20 14 10 18 22 33 32 36 34 30 30 30 31 30 31 28 25 26 24 19 17 14 10 14 12 14 14 14 17 14
34 28 28 33 31 30 29 30 28 28 19 10 20 15 21 27 27 25 32 35 32 34 35 32 33 30 32 31 30 30 25 25 23 22 21 22 20 17 12 18 16 15 17 16
35 33 35 31 34 27 29 20 28 30 24 18 18 14 22 38 37 34 40 39 36 33 39 39 39 37 33 32 32 30 29 26 23 24 22 22 19 18 14 13 19 17 18 18
28 22 29 34 28 29 24 24 27 29 26 27 21 23 16 38 39 39 42 42 43 39 40 40 39 33 33 30 31 30 31 29 27 25 23 24 21 20 17 17 16 17 15 17
28 34 35 35 29 28 29 24 21 23 24 24 22 15 14 22 21 44 49 50 47 44 42 41 38 37 33 34 33 31 32 31 28 29 27 22 23 23 24 21 17 16 17 16
34 34 38 29 33 29 31 32 18 23 17 21 18 21 21 22 6 24 42 52 45 45 43 42 42 40 37 36 36 35 36 34 32 29 30 29 22 19 21 19 20 18 18 19
23 42 17 37 26 33 24 37 20 19 13 11 13 19 26 31 20 16 21 42 45 44 44 43 42 39 40 36 38 37 36 36 36 35 30 28 27 22 21 22 17 14 18 16
18 36 33 28 35 33 32 21 29 23 25 25 21 23 29 25 30 21 24 31 37 42 42 41 42 39 39 38 37 38 35 36 35 33 29 29 29 27 21 18 23 21 18 15
29 10 39 27 35 40 23 27 29 17 15 18 17 26 23 30 35 30 29 22 32 30 41 40 40 39 39 39 34 36 35 34 32 30 31 28 27 26 24 20 21 22 19 20
25 12 14 41 30 24 29 31 23 25 28 14 13 23 10 25 41 35 27 26 28 30 41 40 40 39 37 36 34 34 33 34 35 33 28 28 24 23 23 24 21 20 23 20
22 10 9 24 22 31 32 34 33 17 13 26 22 23 9 16 28 34 28 23 26 28 36 39 38 39 37 35 35 34 35 34 33 30 29 27 28 27 25 25 25 21 22 23
27 22 23 21 21 12 19 31 34 28 22 21 26 19 14 9 14 19 23 16 21 25 34 37 36 39 37 36 36 34 34 33 31 32 31 31 29 29 27 25 27 27 24 24
19 21 22 29 29 21 21 31 33 34 29 25 20 17 18 9 16 20 14 14 20 21 27 32 37 37 37 35 35 36 35 35 34 33 33 33 31 28 28 28 26 26 27 23
26 15 26 18 16 15 14 19 41 33 32 25 19 24 17 18 17 21 21 20 21 21 21 18 18 29 36 36 35 36 35 35 33 33 34 32 30 30 31 29 28 26 27 29
28 20 18 7 7 8 10 19 13 30 29 32 30 19 18 22 23 26 25 19 19 19 18 18 14 14 28 29 28 28 30 32 32 33 33 30 31 31 31 30 28 29 29 27
28 29 10 9 7 5 7 12 15 16 22 14 19 9 29 24 17 18 19 22 18 17 16 19 20 17 6 19 27 29 27 25 31 30 29 31 29 31 29 29 30 30 29 29
23 24 10 5 5 7 9 16 14 6 20 33 25 19 24 30 36 28 23 25 24 23 21 20 20 18 20 21 10 21 27 26 25 28 27 28 29 30 30 32 30 30 28 27
20 19 10 6 4 4 27 38 42 22 17 27 29 32 16 33 28 17 20 22 24 24 23 24 21 17 17 15 17 2 21 30 32 29 25 26 28 30 32 31 30 28 28 28
19 11 13 11 6 7 24 33 23 11 8 20 24 26 26 31 18 17 21 25 24 24 25 25 23 20 17 11 11 11 5 3 10 11 22 24 25 26 27 27 27 26 25 23
10 7 4 8 2 5 23 19 17 9 11 14 18 22 23 22 23 22 23 25 23 24 25 26 25 25 21 15 10 12 9 5 5 8 16 20 22 21 20 25 23 23 23 23
8 8 8 4 8 18 24 11 24 19 18 17 15 16 17 18 19 20 21 22 21 20 20 20 22 24 26 24 14 9 12 6 7 9 19 23 21 22 20 23 21 21 21 23
18 9 7 16 14 24 30 13 26 26 28 28 15 16 16 13 12 14 16 18 18 19 17 18 21 22 24 25 26 26 18 8 8 11 13 16 21 21 21 17 19 21 21 21
13 14 20 16 20 33 20 27 26 30 29 28 31 19 12 15 8 8 11 13 16 16 16 17 20 22 22 23 20 25 14 10 7 9 10 16 19 22 17 11 8 17 13 17
18 16 12 25 34 29 38 38 32 31 31 31 27 26 21 14 10 11 10 9 11 18 18 15 18 20 25 22 20 17 17 16 14 15 14 15 17 18 17 19 10 15 6 3
Wind_Direction
215 220 221 218 233 233 240 245 229 238 228 226 202 155 175 203 190 182 190 214 231 193 195 195 196 190 192 177 165 176 157 167 167 171 183 196 215 231 222 233 180 177 182 182
211 231 222 214 225 236 236 247 257 233 247 203 143 163 187 177 183 189 202 204 232 190 192 182 174 175 173 172 175 169 168 167 173 177 183 189 200 213 208 222 195 181 187 184
211 226 222 211 221 227 235 241 247 253 253 140 139 150 169 197 259 250 181 205 208 186 191 182 180 175 173 170 176 178 172 166 175 175 176 182 195 208 208 211 223 195 190 180
225 230 211 223 220 225 222 236 247 257 263 179 178 174 196 179 213 213 213 201 215 188 188 186 186 181 179 177 175 179 173 170 178 173 179 190 202 205 202 204 212 209 189 186
225 210 231 217 225 220 234 229 242 254 263 267 208 215 204 196 211 202 214 200 209 205 187 187 188 185 184 176 176 178 180 177 181 184 186 189 199 206 204 198 208 203 204 204
236 237 223 234 220 226 228 229 240 245 246 251 244 209 203 200 210 201 209 201 203 203 188 189 188 184 181 177 175 176 181 184 184 189 188 198 204 205 210 212 212 209 196 202
247 230 232 227 233 220 215 224 229 238 229 236 243 219 213 230 208 197 196 193 202 191 187 185 183 185 181 174 177 178 182 188 188 193 202 200 204 202 209 216 213 210 190 193
234 244 218 221 221 225 210 219 211 215 217 231 237 251 253 261 268 199 182 185 189 186 186 183 184 183 184 179 178 180 184 189 191 191 201 208 209 204 208 207 214 214 198 187
250 240 237 226 219 226 211 217 223 251 239 240 205 241 253 261 266 220 203 176 187 185 182 182 182 182 183 182 181 183 186 190 192 197 198 204 209 209 206 212 213 214 216 201
282 256 258 229 221 238 222 190 216 225 225 226 234 224 233 235 246 233 223 201 185 184 179 180 180 181 183 185 183 184 185 190 193 196 197 202 205 210 210 199 211 216 226 229
317 268 253 250 212 220 219 213 204 217 222 222 224 235 226 225 226 222 219 193 186 176 177 178 178 180 182 187 183 185 184 188 192 195 200 202 204 208 208 207 207 214 219 225
304 290 269 243 248 242 216 215 214 206 219 234 238 254 312 325 210 213 210 212 175 181 174 176 175 178 181 185 185 186 186 188 192 196 195 204 204 204 203 210 212 207 216 218
317 336 304 254 248 257 230 199 218 204 184 225 233 257 281 324 195 188 193 193 200 167 169 174 174 177 182 184 186 187 189 192 191 192 197 197 203 205 204 204 210 211 210 217
309 270 236 262 258 234 244 212 205 214 206 214 228 242 276 39 93 167 183 161 178 167 167 174 173 180 183 184 186 188 192 191 189 192 195 200 202 204 205 205 205 210 211 213
302 282 270 267 269 276 274 215 197 209 217 209 219 221 219 143 91 86 126 154 155 176 162 166 177 180 184 185 187 188 190 191 192 191 196 201 201 200 202 207 208 206 212 212
305 288 313 295 283 280 294 287 195 201 212 225 228 227 185 158 124 102 91 90 96 110 110 134 164 185 186 184 186 190 191 194 192 197 198 200 198 198 201 204 207 207 209 215
295 316 323 303 309 289 286 238 262 207 198 213 221 225 160 148 142 127 110 94 93 85 81 87 109 119 185 190 188 185 190 191 195 199 202 198 198 199 201 202 203 208 211 212
275 290 287 290 13 211 259 329 311 237 203 215 225 199 164 147 95 91 105 109 82 67 53 46 51 52 51 171 187 186 186 183 194 200 198 202 198 199 200 203 204 209 211 212
258 270 292 298 346 309 276 356 349 326 47 16 19 6 154 102 74 45 47 61 64 59 48 42 46 47 38 36 33 185 188 190 186 196 197 195 195 197 197 203 205 207 211 215
211 257 292 343 286 202 356 346 335 318 57 14 22 30 60 101 80 52 40 47 49 45 39 28 22 28 31 24 21 158 188 190 200 203 191 187 191 195 200 201 203 205 210 215
192 207 250 258 287 5 346 338 0 63 34 16 15 23 45 69 70 45 39 42 44 38 28 17 13 11 2 9 6 16 30 199 227 200 194 189 189 194 198 200 201 203 207 211
27 298 193 266 359 308 342 3 41 358 63 44 14 23 30 40 41 34 32 28 30 34 23 17 7 351 338 341 345 332 319 292 305 238 210 206 201 190 187 191 197 200 202 210
41 25 341 326 299 302 339 338 320 353 1 1 20 19 20 33 32 26 22 24 18 18 23 18 5 350 345 348 342 293 278 279 281 263 223 210 201 198 194 192 193 195 199 208
349 3 21 347 320 350 327 315 349 335 348 337 342 350 358 13 31 22 23 17 10 6 2 15 4 349 338 336 334 324 286 242 206 231 239 212 199 197 196 189 190 197 203 211
31 11 337 311 320 341 298 313 325 324 330 332 337 325 321 327 345 38 26 13 358 354 354 8 355 335 325 324 330 337 324 302 264 254 256 223 201 195 183 167 194 211 204 216
9 350 319 297 302 290 279 289 299 305 307 312 317 322 328 339 340 36 14 357 1 347 343 348 350 326 315 315 313 322 338 342 335 266 258 234 198 188 163 164 132 62 90 86